Cedar Rapids, IA

4:02 PM CST on December 15, 2019 (GMT -0600)
The Eastern Iowa Airport

Weather History for KCID - August, 2019

Change the Weather History Date:

Saturday, August 31, 2019

  Actual Average Record
Temperature  
Mean Temperature 62 °F 69 °F  
Max Temperature 70 °F 80 °F 98 °F (1953)
Min Temperature 54 °F 58 °F 38 °F (1915)
Degree Days  
Heating Degree Days 3 1  
Month to date heating degree days 8 12  
Since 1 June heating degree days 19 48  
Since 1 July heating degree days 8 19  
Cooling Degree Days 0 5  
Month to date cooling degree days 150 201  
Year to date cooling degree days 652 668  
Since 1 June cooling degree days 624 619  
Growing Degree Days 12 (Base 50)    
Moisture  
Dew Point 56 °F    
Average Humidity 79    
Maximum Humidity 97    
Minimum Humidity 61    
Precipitation  
Precipitation 0.07 in 0.14 in 1.74 in (2010)
Month to date precipitation 5.26 4.48  
Year to date precipitation 27.85 25.30  
Sea Level Pressure  
Sea Level Pressure 30.22 in    
Wind  
Wind Speed 7 mph (ENE)    
Max Wind Speed 14 mph    
Max Gust Speed 17 mph    
Visibility 10 miles    
Events Rain    
T = Trace of Precipitation, MM = Missing Value Source: NWS Daily Summary

Daily Weather History Graph

Daily Weather History Graph

Search for Another Location

Airport or City:

Astronomy

Aug. 31, 2019 Rise Set
Actual Time 6:31 AM CDT 7:42 PM CDT
Civil Twilight 6:02 AM CDT 8:10 PM CDT
Nautical Twilight 5:28 AM CDT 8:45 PM CDT
Astronomical Twilight 4:51 AM CDT 9:21 PM CDT
Moon 7:48 AM CDT (8/31) 8:54 PM CDT (8/31)
Length of Visible Light 14h 08m
Length of Day
13h 10m
New Moon, 3% of the Moon is Illuminated
Aug 31
New Moon
Sep 5
First Quarter
Sep 13
Full
Sep 21
Last Quarter
Sep 28
New

Hourly Weather History & Observations

Time (CDT) Temp. Dew Point Humidity Pressure Visibility Wind Dir Wind Speed Gust Speed Precip Events Conditions
12:52 AM 59.0 °F 57.0 °F 93% 30.22 in 10.0 mi East 3.5 mph - N/A   Clear
1:52 AM 60.1 °F 55.9 °F 86% 30.22 in 10.0 mi NNW 3.5 mph - N/A   Clear
2:52 AM 60.1 °F 55.0 °F 83% 30.22 in 10.0 mi NNE 4.6 mph - N/A   Clear
3:52 AM 57.9 °F 55.9 °F 93% 30.23 in 10.0 mi Calm Calm - N/A   Clear
4:52 AM 57.9 °F 55.0 °F 90% 30.24 in 10.0 mi NE 5.8 mph - N/A   Clear
5:52 AM 55.9 °F 53.1 °F 90% 30.24 in 10.0 mi ENE 6.9 mph - N/A   Clear
6:52 AM 55.0 °F 53.1 °F 93% 30.25 in 10.0 mi East 6.9 mph - N/A   Clear
7:52 AM 60.1 °F 54.0 °F 80% 30.25 in 10.0 mi ENE 6.9 mph - N/A   Clear
8:52 AM 64.0 °F 54.0 °F 70% 30.25 in 10.0 mi East 13.8 mph - N/A   Clear
9:52 AM 64.0 °F 54.0 °F 70% 30.26 in 10.0 mi ESE 8.1 mph - N/A   Clear
10:52 AM 64.9 °F 55.0 °F 70% 30.24 in 10.0 mi East 10.4 mph - N/A   Clear
11:52 AM 66.0 °F 55.0 °F 68% 30.24 in 10.0 mi East 9.2 mph - N/A   Clear
12:52 PM 68.0 °F 55.9 °F 65% 30.24 in 10.0 mi ESE 10.4 mph - N/A   Clear
1:52 PM 68.0 °F 57.0 °F 68% 30.24 in 10.0 mi SE 8.1 mph - N/A   Mostly Cloudy
2:52 PM 69.1 °F 57.0 °F 65% 30.22 in 10.0 mi ESE 6.9 mph - N/A   Clear
3:52 PM 69.1 °F 55.9 °F 63% 30.22 in 10.0 mi ENE 8.1 mph - N/A   Mostly Cloudy
4:52 PM 68.0 °F 57.0 °F 68% 30.20 in 10.0 mi NE 5.8 mph - N/A   Overcast
5:52 PM 66.9 °F 55.9 °F 68% 30.18 in 10.0 mi ENE 8.1 mph - N/A   Mostly Cloudy
6:52 PM 64.9 °F 57.0 °F 75% 30.17 in 10.0 mi ENE 10.4 mph - N/A   Overcast
7:52 PM 63.0 °F 57.9 °F 84% 30.17 in 10.0 mi NE 10.4 mph - 0.00 in Rain Light Rain
8:52 PM 63.0 °F 57.9 °F 84% 30.18 in 10.0 mi NNE 5.8 mph - 0.00 in   Overcast
9:52 PM 62.1 °F 59.0 °F 90% 30.19 in 7.0 mi NE 4.6 mph - 0.00 in Rain Light Rain
10:52 PM 60.1 °F 59.0 °F 96% 30.19 in 9.0 mi ESE 3.5 mph - 0.05 in Rain Light Rain
11:52 PM 61.0 °F 59.0 °F 93% 30.18 in 10.0 mi East 5.8 mph - 0.02 in   Overcast